CAPE
0 0 0 0 0 0 0 0 0 0 0 0 0 0 0 0 0 0 0 0 0 0 0 0 0 0 0 0 0 0 0 0 0 0 0 0 0 0 0 0 0 0 0 0
0 0 0 0 0 0 0 0 0 0 0 0 0 0 0 0 0 0 0 0 0 0 0 0 0 0 0 0 0 0 0 0 0 0 0 0 0 0 0 0 0 0 0 0
0 0 0 0 0 0 0 0 0 0 0 0 0 0 0 0 0 0 0 0 0 0 0 0 0 0 0 0 0 0 0 0 0 0 0 0 0 0 0 0 0 0 0 0
0 0 0 0 0 0 0 0 0 0 0 0 0 0 0 0 0 0 0 0 0 0 0 0 0 0 0 0 0 0 0 0 0 0 0 0 0 0 0 0 0 0 0 0
0 0 0 0 0 0 0 0 0 0 0 0 0 0 0 0 0 0 0 0 0 0 0 0 0 0 0 0 0 0 0 0 0 0 0 0 0 0 0 0 0 0 0 0
0 0 0 0 0 0 0 0 0 0 0 0 0 0 0 0 0 0 0 0 0 0 0 0 0 0 0 0 0 0 0 0 0 0 0 0 0 0 0 0 0 0 0 0
0 0 0 0 0 0 0 0 0 0 0 0 0 0 0 0 0 0 0 0 0 0 0 0 0 0 0 0 0 0 0 0 0 0 0 0 0 0 0 0 0 0 0 0
0 0 0 0 0 0 0 0 0 0 0 0 0 0 0 0 0 0 0 0 0 0 0 0 0 0 0 0 0 0 0 0 0 0 0 0 0 0 0 0 0 0 0 0
0 0 0 0 0 0 0 0 0 0 0 0 0 0 0 0 0 0 0 0 0 0 0 0 0 0 0 0 0 0 0 0 0 0 0 0 0 0 0 0 0 0 0 0
0 0 0 0 0 0 0 0 0 0 0 0 0 0 0 0 0 0 0 0 0 0 0 0 0 0 0 0 0 0 0 0 0 0 0 0 0 0 0 0 0 0 0 0
0 0 0 0 0 0 0 0 0 0 0 0 0 0 0 0 0 0 0 0 0 0 0 0 0 0 0 0 0 0 0 0 0 0 0 0 0 0 0 0 0 0 0 0
0 0 0 0 0 0 0 0 0 0 0 0 0 0 0 0 0 0 0 0 0 0 0 0 0 0 0 0 0 0 0 0 0 0 0 0 0 0 0 0 0 0 0 0
0 0 0 0 0 0 0 0 0 0 0 0 0 0 0 0 0 0 0 0 0 0 0 0 0 0 0 0 0 0 0 0 0 0 0 0 0 0 0 0 0 0 0 0
0 0 0 0 0 0 0 0 0 0 0 0 0 0 0 0 0 0 0 0 0 0 0 0 0 0 0 0 0 0 0 0 0 0 0 0 0 0 0 0 0 0 0 0
0 0 0 0 0 0 0 0 0 0 0 0 0 0 0 0 0 0 0 0 0 0 0 0 0 0 0 0 0 0 0 0 0 0 0 0 0 0 0 0 0 0 0 0
0 0 0 0 0 0 0 0 0 0 0 0 0 0 0 0 0 0 0 0 0 0 0 0 0 0 0 0 0 0 0 0 0 0 0 0 0 0 0 0 0 0 0 0
0 0 0 0 0 0 0 0 0 0 0 0 0 0 0 0 0 0 0 0 0 0 0 0 0 0 0 0 0 0 0 0 0 0 0 0 0 1 1 1 2 1 1 1
0 0 6 0 0 0 0 0 0 0 0 0 0 0 0 0 0 0 0 0 0 0 0 0 0 0 0 0 0 0 0 0 0 0 1 0 0 1 2 3 3 3 2 2
0 0 0 0 0 0 0 0 0 9 0 0 0 0 0 0 0 0 0 0 0 0 0 0 0 0 0 0 0 0 0 0 0 1 0 0 0 2 3 4 3 3 3 2
0 1 4 0 0 0 0 0 0 0 0 0 0 0 0 0 0 0 0 0 0 0 0 0 0 0 0 0 0 0 0 0 1 0 1 0 2 2 3 3 3 3 3 4
0 4 0 5 0 0 0 0 14 10 0 0 6 0 0 0 0 0 0 0 0 0 0 0 0 0 0 0 0 0 0 0 0 0 0 1 1 1 2 1 1 3 3 4
0 0 0 4 3 8 0 0 2 0 0 0 0 0 0 0 0 0 0 0 0 0 0 0 0 0 0 0 0 0 0 0 0 1 1 2 1 2 2 2 3 3 3 4
0 0 0 0 0 0 0 0 0 0 0 0 2 0 0 0 0 0 0 0 0 0 0 0 0 0 0 0 0 0 0 0 0 1 1 2 2 1 2 2 1 1 3 3
0 0 8 2 0 0 0 0 0 0 0 0 0 0 0 0 0 0 0 0 0 0 0 0 0 0 0 0 0 0 0 0 1 1 2 2 2 3 2 2 1 2 3 3
0 0 1 0 0 0 0 0 0 0 0 0 0 1 0 0 0 0 0 0 0 0 0 0 0 0 0 0 0 0 0 1 1 1 2 3 3 3 3 2 2 2 2 2
0 0 0 0 0 0 0 0 0 0 0 0 2 0 0 0 0 0 0 0 0 0 0 0 0 0 0 0 0 0 0 0 0 1 3 2 1 2 2 2 2 0 0 0
CIN
-0 -0 -0 -0 -0 -0 -0 -0 -0 -0 -0 -0 -0 -0 -0 -0 -0 -0 -0 -0 -0 -0 -0 -0 -0 -0 -0 -0 -0 -0 -0 -0 -0 -0 -0 -0 -0 -0 -0 -0 -0 -0 -0 -0
-0 -0 -0 -0 -0 -0 -0 -0 -0 -0 -0 -0 -0 -0 -0 -0 -0 -0 -0 -0 -0 -0 -0 -0 -0 -0 -0 -0 -0 -0 -0 -0 -0 -0 -0 -0 -0 -0 -0 -0 -0 -0 -0 -0
-0 -0 -0 -0 -0 -0 -0 -0 -0 -0 -0 -0 -0 -0 -0 -0 -0 -0 -0 -0 -0 -0 -0 -0 -0 -0 -0 -0 -0 -0 -0 -0 -0 -0 -0 -0 -0 -0 -0 -0 -0 -0 -0 -0
-0 -0 -0 -0 -0 -0 -0 -0 -0 -0 -0 -0 -0 -0 -0 -0 -0 -0 -0 -0 -0 -0 -0 -0 -0 -0 -0 -0 -0 -0 -0 -0 -0 -0 -0 -0 -0 -0 -0 -0 -0 -0 -0 -0
-0 -0 -0 -0 -0 -0 -0 -0 -0 -0 -0 -0 -0 -0 -0 -0 -0 -0 -0 -0 -0 -0 -0 -0 -0 -0 -0 -0 -0 -0 -0 -0 -0 -0 -0 -0 -0 -0 -0 -0 -0 -0 -0 -0
-0 -0 -0 -0 -0 -0 -0 -0 -0 -0 -0 -0 -0 -0 -0 -0 -0 -0 -0 -0 -0 -0 -0 -0 -0 -0 -0 -0 -0 -0 -0 -0 -0 -0 -0 -0 -0 -0 -0 -0 -0 -0 -0 -0
-0 -0 -0 -0 -0 -0 -0 -0 -0 -0 -0 -0 -0 -0 -0 -0 -0 -0 -0 -0 -0 -0 -0 -0 -0 -0 -0 -0 -0 -0 -0 -0 -0 -0 -0 -0 -0 -0 -0 -0 -0 -0 -0 -0
-0 -0 -0 -0 -0 -0 -0 -0 -0 -0 -0 -0 -0 -0 -0 -0 -0 -0 -0 -0 -0 -0 -0 -0 -0 -0 -0 -0 -0 -0 -0 -0 -0 -0 -0 -0 -0 -0 -0 -0 -0 -0 -0 -0
-0 -0 -0 -0 -0 -0 -0 -0 -0 -0 -0 -0 -0 -0 -0 -0 -0 -0 -0 -0 -0 -0 -0 -0 -0 -0 -0 -0 -0 -0 -0 -0 -0 -0 -0 -0 -0 -0 -0 -0 -0 -0 -0 -0
-0 -0 -0 -0 -0 -0 -0 -0 -0 -0 -0 -0 -0 -0 -0 -0 -0 -0 -0 -0 -0 -0 -0 -0 -0 -0 -0 -0 -0 -0 -0 -0 -0 -0 -0 -0 -0 -0 -0 -0 -0 -0 -0 -0
-0 -0 -0 -0 -0 -0 -0 -0 -0 -0 -0 -0 -0 -0 -0 -0 -0 -0 -0 -0 -0 -0 -0 -0 -0 -0 -0 -0 -0 -0 -0 -0 -0 -0 -0 -0 -0 -0 -0 -0 -0 -0 -0 -0
-0 -0 -0 -0 -0 -0 -0 -0 -0 -0 -0 -0 -0 -0 -0 -0 -0 -0 -0 -0 -0 -0 -0 -0 -0 -0 -0 -0 -0 -0 -0 -0 -0 -0 -0 -0 -0 -0 -0 -0 -0 -0 -0 -0
-0 -0 -0 -0 -0 -0 -0 -0 -0 -0 -0 -0 -0 -0 -0 -0 -0 -0 -0 -0 -0 -0 -0 -0 -0 -0 -0 -0 -0 -0 -0 -0 -0 -0 -0 -0 -0 -0 -0 -0 -0 -0 -0 -0
-0 -0 -0 -0 -0 -0 -0 -0 -0 -0 -0 -0 -0 -0 -0 -0 -0 -0 -0 -0 -0 -0 -0 -0 -0 -0 -0 -0 -0 -0 -0 -0 -0 -0 -0 -0 -0 -0 -0 -0 -0 -0 -0 -0
-0 -0 -0 -0 -0 -0 -0 -0 -0 -0 -0 -0 -0 -0 -0 -0 -0 -0 -0 -0 -0 -0 -0 -0 -0 -0 -0 -0 -0 -0 -0 -0 -0 -0 -0 -0 -0 -0 -0 -0 -0 -0 -0 -0
-0 -0 -0 -0 -0 -0 -0 -0 -0 -0 -0 -0 -0 -0 -0 -0 -0 -0 -0 -0 -0 -0 -0 -0 -0 -0 -0 -0 -0 -0 -0 -0 -0 -0 -0 -0 -0 -0 -0 -0 -0 -0 -0 -0
-0 -0 -0 -0 -0 -0 -0 -0 -0 -0 -0 -0 -0 -0 -0 -0 -0 -0 -0 -0 -0 -0 -0 -0 -0 -0 -0 -0 -0 -0 -0 -0 -0 -0 -0 -0 -0 -0 -0 -0 -0 -0 -0 -0
-0 -0 -0 -0 -0 -0 -0 -0 -0 -0 -0 -0 -0 -0 -0 -0 -0 -0 -0 -0 -0 -0 -0 -0 -0 -0 -0 -0 -0 -0 -0 -0 -0 -0 -0 -0 -0 -0 -0 -0 -0 -0 -0 -0
-0 -0 -0 -0 -0 -0 -0 -0 -0 -7 -0 -0 -0 -0 -0 -0 -0 -0 -0 -0 -0 -0 -0 -0 -0 -0 -0 -0 -0 -0 -0 -0 -0 -0 -0 -0 -0 -0 -0 -0 -0 -0 -0 -0
-0 -2 -10 -0 -0 -0 -0 -0 -0 -0 -0 -0 -0 -0 -0 -0 -0 -0 -0 -0 -0 -0 -0 -0 -0 -0 -0 -0 -0 -0 -0 -0 -0 -0 -0 -0 -0 -0 -0 -0 -0 -0 -0 -0
-0 -24 -0 -12 -7 -0 -0 -0 -5 -2 -0 -0 -59 -0 -0 -0 -0 -0 -0 -0 -0 -0 -0 -0 -0 -0 -0 -0 -0 -0 -0 -0 -0 -0 -0 -0 -0 -0 -0 -0 -0 -0 -0 -0
-2 -0 -0 -7 -4 -9 -0 -0 -2 -0 -0 -0 -0 -0 -0 -0 -0 -0 -0 -0 -0 -0 -0 -0 -0 -0 -0 -0 -0 -0 -0 -0 -0 -0 -0 -0 -0 -0 -0 -0 -0 -0 -0 -0
-0 -0 -0 -0 -0 -0 -1 -0 -0 -0 -0 -0 -89 -0 -0 -0 -0 -0 -0 -0 -0 -0 -0 -0 -0 -0 -0 -0 -0 -0 -0 -0 -0 -0 -0 -0 -0 -0 -0 -0 -0 -0 -0 -0
-1 -0 -0 -0 -0 -0 -0 -0 -0 -0 -0 -0 -0 -0 -0 -0 -0 -0 -0 -0 -0 -0 -0 -0 -0 -0 -0 -0 -0 -0 -0 -0 -0 -0 -0 -0 -0 -0 -0 -0 -0 -0 -0 -0
-0 -0 -2 -0 -0 -0 -0 -0 -0 -0 -0 -0 -0 -135 -0 -0 -0 -0 -0 -0 -0 -0 -0 -0 -0 -0 -0 -0 -0 -0 -0 -0 -0 -0 -0 -0 -0 -0 -0 -0 -0 -0 -0 -0
-0 -0 -0 -0 -0 -0 -0 -0 -0 -1 -0 -0 -0 -0 -0 -0 -0 -0 -0 -0 -0 -0 -0 -0 -0 -0 -0 -0 -0 -0 -0 -0 -0 -0 -0 -0 -0 -0 -0 -0 -0 -0 -0 -0
Wind_Speed
20 22 24 22 21 22 21 24 28 27 25 27 29 31 29 27 24 22 18 15 13 13 13 9 6 6 6 7 7 9 12 16 19 22 25 26 28 27 28 27 28 28 28 27
22 27 23 22 23 26 27 31 33 31 28 28 32 37 33 30 29 24 19 17 16 16 15 13 11 11 9 8 8 10 13 17 20 23 26 27 29 28 29 28 28 28 29 28
22 21 18 24 25 26 28 31 31 30 27 29 34 43 38 33 31 28 25 24 22 20 18 17 15 13 12 10 10 12 15 19 23 25 27 31 32 33 33 33 32 31 30 29
24 22 21 21 25 25 33 27 26 28 31 38 28 47 38 33 31 29 30 29 27 22 20 19 17 15 13 11 13 16 18 22 24 26 30 34 36 40 37 38 35 34 32 30
24 20 22 29 29 23 29 22 23 25 30 33 33 40 38 29 33 35 33 32 29 21 20 20 18 16 14 13 15 17 19 22 25 28 32 36 39 38 40 40 39 37 34 32
27 23 24 25 23 20 15 19 22 25 29 41 35 34 41 34 30 32 30 31 33 21 17 17 16 14 15 16 17 18 20 23 26 30 35 38 40 42 44 44 43 39 35 32
28 28 26 23 25 22 22 24 33 36 35 41 29 33 39 32 34 36 38 36 27 14 13 13 14 14 16 17 18 19 22 26 28 32 37 39 39 41 43 43 42 40 38 34
33 38 24 21 22 24 24 25 30 38 37 36 27 36 31 25 28 32 32 26 19 12 8 10 11 13 16 18 20 22 25 29 32 35 38 38 39 41 41 41 39 38 37 36
32 36 26 24 21 19 23 28 26 34 33 41 38 38 37 31 31 27 25 20 14 7 5 7 10 13 17 19 21 23 27 30 34 36 38 39 41 42 43 41 38 38 36 36
28 40 31 30 24 25 27 19 29 28 39 44 40 40 38 31 28 24 20 15 11 7 9 12 15 17 20 21 23 25 28 34 35 37 39 42 43 42 42 41 41 40 38 37
28 30 32 27 27 27 26 30 28 27 31 40 44 41 29 28 23 21 18 14 13 13 13 15 18 20 21 23 25 28 32 35 36 38 41 44 45 44 43 42 42 41 39 37
29 33 40 39 31 28 29 31 28 36 39 35 38 50 27 29 24 21 19 18 19 20 20 21 22 23 25 27 29 32 34 35 37 40 44 45 45 45 44 44 43 41 41 37
31 34 46 45 37 32 34 33 32 32 33 39 45 49 25 24 22 20 23 22 22 24 25 24 24 26 28 30 31 33 34 36 39 43 45 46 45 44 44 44 45 42 41 39
33 37 42 53 46 39 43 41 36 37 43 46 43 48 37 32 28 25 22 24 27 30 28 26 26 26 28 29 31 34 35 37 41 43 44 44 43 43 44 45 44 42 40 40
33 45 41 47 45 45 51 53 48 43 42 45 49 44 51 35 32 31 30 27 30 32 31 31 28 27 29 30 32 33 36 39 41 43 42 43 42 42 44 44 43 41 41 42
34 46 42 54 50 50 53 51 51 50 49 48 47 51 42 32 30 33 33 32 32 33 35 31 27 28 29 31 32 33 37 40 41 41 42 41 41 43 44 43 43 43 44 44
50 52 50 65 52 51 56 56 52 52 48 45 49 47 41 42 38 37 35 33 35 35 32 28 26 28 29 29 29 33 36 39 40 39 40 40 42 44 44 42 42 43 44 43
52 51 50 62 56 67 56 43 44 47 49 46 46 46 42 40 35 35 35 38 36 32 28 26 25 27 26 25 28 31 34 37 39 39 40 41 43 44 42 42 42 42 42 42
41 46 52 57 62 59 60 53 41 40 51 46 48 48 45 41 41 46 39 36 32 25 21 22 24 24 23 24 27 31 35 37 38 38 40 42 43 42 41 41 41 40 40 41
33 38 45 47 59 70 64 56 48 51 63 48 44 47 46 38 46 51 34 29 24 17 18 20 21 21 22 25 27 31 36 37 38 39 41 42 40 39 39 39 39 37 36 35
38 37 46 48 52 52 46 43 36 45 52 37 36 40 39 38 37 35 25 21 15 14 16 18 18 19 21 24 27 32 35 37 37 37 39 41 39 38 38 37 36 35 24 21
37 37 41 39 43 50 28 34 39 43 44 42 45 36 28 26 24 22 15 12 13 15 16 16 16 19 21 24 27 32 35 35 35 37 40 40 37 36 37 37 35 31 30 31
30 26 30 29 32 24 26 30 34 37 42 43 41 38 30 18 16 12 11 10 11 13 13 15 17 18 21 25 28 32 34 34 36 38 40 38 36 37 35 38 38 36 36 37
27 26 28 26 23 26 34 35 37 34 37 39 43 40 36 21 14 10 8 6 11 10 12 13 15 18 23 26 28 29 32 33 36 38 39 37 37 37 36 37 33 35 33 37
34 33 32 38 40 39 37 35 33 36 37 37 38 39 35 17 13 11 7 5 6 8 9 11 14 18 22 25 27 29 31 33 36 37 37 38 35 35 36 34 31 30 24 30
38 40 38 38 39 37 37 34 33 34 34 34 35 32 22 10 10 8 8 5 4 8 9 12 14 17 21 23 26 29 31 33 35 37 36 38 34 35 35 33 39 29 10 9
Wind_Direction
289 281 274 276 275 275 278 276 275 279 284 281 279 280 281 281 287 287 281 262 249 236 269 262 264 280 297 320 331 339 342 342 347 346 346 347 345 343 341 340 338 336 334 330
284 276 278 281 282 278 275 274 275 279 282 283 283 279 283 284 285 283 276 265 257 258 257 252 261 276 280 297 312 324 332 337 340 343 344 345 342 342 339 338 336 334 332 329
282 285 291 285 281 279 277 277 277 277 285 287 287 280 282 286 284 283 280 275 268 252 244 246 254 266 276 281 298 313 325 330 334 337 338 337 337 336 334 335 334 333 331 327
288 289 286 287 284 283 276 283 280 279 282 279 291 279 284 289 288 288 285 279 276 267 257 250 250 259 266 277 297 309 317 322 327 331 332 333 332 328 330 329 332 332 331 328
287 287 288 288 284 285 283 286 281 282 282 284 283 284 284 293 291 291 290 287 285 273 253 243 242 254 266 281 296 306 315 320 323 327 329 329 328 327 327 328 329 331 330 328
286 293 291 293 294 284 291 289 289 288 286 278 282 283 284 291 294 297 297 297 296 275 262 242 242 253 269 286 297 304 312 316 320 323 325 325 325 323 323 325 327 329 329 328
288 287 289 290 287 287 282 284 280 279 278 277 289 285 283 292 292 295 293 295 303 287 251 230 234 253 273 285 295 303 309 313 317 321 322 324 323 323 324 325 326 327 327 326
283 280 286 289 285 285 276 272 274 278 278 283 290 281 289 301 302 300 302 303 303 294 258 227 238 262 277 288 295 302 307 311 316 320 321 323 323 323 325 326 326 326 325 323
284 280 289 288 292 285 281 276 284 280 285 281 281 284 290 296 300 305 308 306 305 289 248 242 261 275 285 291 297 303 307 312 316 319 321 322 322 323 324 325 326 325 323 322
289 282 285 282 285 287 280 285 282 283 279 278 281 282 282 292 298 307 309 307 301 287 274 276 279 285 291 295 300 306 309 312 316 319 320 320 321 324 325 326 325 324 322 321
296 285 282 285 278 276 281 276 281 284 280 280 281 282 292 293 293 300 299 296 288 284 284 284 286 291 296 299 302 306 309 312 316 318 320 320 322 324 326 325 325 323 322 321
297 287 279 277 283 284 279 276 273 274 277 283 284 279 292 294 294 293 292 289 288 287 289 290 291 294 297 300 302 304 309 313 317 318 318 319 322 324 324 324 325 324 322 322
294 285 279 279 279 282 278 278 277 280 282 275 277 280 295 295 298 295 290 286 286 288 292 292 294 294 296 299 302 305 310 313 316 317 319 320 323 325 325 325 325 324 323 320
291 280 276 273 276 286 279 280 281 275 272 275 275 281 284 288 289 294 293 287 285 287 289 294 296 296 298 301 304 307 311 314 316 318 320 322 325 326 326 326 326 325 324 321
283 278 278 278 280 282 278 277 277 275 274 273 277 278 279 283 286 290 293 290 287 286 287 293 292 295 298 302 305 309 312 314 317 319 322 324 326 327 328 328 328 327 325 322
283 279 282 277 280 281 278 277 274 273 274 276 276 277 283 288 287 289 290 291 286 285 288 290 290 295 298 302 306 310 313 315 319 321 322 325 328 328 329 329 330 329 327 325
278 279 279 274 278 280 276 270 273 274 273 270 272 275 283 283 284 284 286 287 287 287 287 286 287 294 299 304 309 313 315 318 321 323 325 327 328 329 330 332 332 332 331 330
275 275 274 274 276 269 273 278 277 276 273 273 275 277 279 282 282 283 284 287 288 288 285 282 288 295 302 308 313 317 319 320 322 324 327 329 330 330 332 333 334 334 335 335
269 271 272 268 269 273 274 272 279 279 276 276 274 274 276 279 282 282 284 287 289 285 283 284 291 297 304 309 316 319 320 322 324 327 329 331 331 333 334 334 334 336 336 338
278 270 268 272 267 268 271 276 277 277 273 275 279 277 274 275 275 277 284 284 285 281 283 288 294 301 306 311 318 320 320 323 326 329 332 334 335 335 336 337 337 338 339 339
282 277 270 272 271 275 278 278 282 263 273 275 286 285 273 268 272 282 282 276 278 283 286 291 298 303 308 316 321 321 322 324 330 333 335 336 336 338 338 340 342 342 340 334
281 279 274 275 276 275 288 283 268 271 278 279 279 286 287 273 277 278 272 266 278 284 287 289 300 306 314 320 324 322 324 330 335 336 337 338 340 341 342 343 344 347 346 343
281 280 283 279 282 292 295 288 284 281 277 270 269 271 275 271 271 267 266 273 273 282 291 292 302 311 318 320 325 324 328 334 337 338 340 342 343 342 345 344 346 347 349 345
287 281 285 291 297 287 286 283 281 280 276 264 258 258 257 260 258 264 262 282 275 286 292 302 307 312 316 324 329 333 334 337 338 340 343 346 343 344 347 345 351 349 352 347
260 268 274 272 271 279 266 264 270 273 271 258 255 255 255 243 247 251 272 291 293 292 306 311 316 320 325 329 334 336 337 340 341 344 348 346 347 348 348 351 354 354 1 356
246 246 256 245 269 260 255 255 258 261 267 255 252 245 244 203 240 256 275 297 308 299 313 317 323 329 330 337 338 339 344 346 347 349 352 350 353 352 352 356 346 0 301 336